Wind_Speed
26 19 18 15 8 9 8 6 7 8 9 10 10 8 6 5 2 2 6 8 11 13 14 15 18 19 19 22 20 19 15 10
19 15 15 15 13 11 7 7 8 10 10 11 10 8 5 3 2 6 9 11 13 14 15 16 19 21 25 25 23 20 19 20
13 10 12 13 10 6 6 8 10 10 11 10 7 5 5 5 8 9 12 15 16 17 18 19 21 21 26 30 29 23 22 25
9 9 9 8 6 8 8 8 8 9 8 7 3 6 8 10 12 13 17 17 17 20 18 21 22 25 28 28 27 25 24 27
9 6 5 7 8 9 9 9 9 8 6 5 4 8 10 14 15 19 19 24 24 24 21 23 26 28 31 32 27 27 29 31
4 7 7 6 9 7 9 11 11 7 5 8 11 15 14 14 17 20 22 26 28 28 23 19 29 31 34 35 36 36 36 39
7 8 8 7 8 11 8 7 6 5 9 14 18 17 15 18 23 24 28 28 33 25 24 27 29 31 34 38 39 40 43 42
8 9 9 9 8 6 6 5 4 12 20 19 20 23 18 22 18 25 24 25 18 20 26 28 32 35 40 43 45 45 44 40
10 9 7 5 6 7 7 11 16 20 26 30 27 24 17 16 16 16 18 19 20 22 27 32 35 37 39 41 43 44 44 37
8 7 7 7 7 6 12 12 14 17 17 17 18 17 16 17 17 18 22 27 30 32 35 37 39 42 44 44 44 43 38 39
7 8 8 10 11 20 10 8 9 10 12 13 13 14 16 20 21 22 24 29 33 37 38 40 41 41 41 41 45 43 39 36
9 11 11 12 13 13 8 10 9 10 10 11 13 13 17 22 27 28 30 33 36 38 39 41 41 43 43 42 44 44 41 37
15 16 13 14 16 13 12 10 10 9 10 10 12 17 21 24 26 32 35 36 37 38 39 41 42 42 43 43 43 45 42 36
18 18 15 13 15 14 14 11 11 13 13 16 18 23 27 31 35 34 35 37 37 38 39 41 42 42 42 43 46 47 46 46
21 19 13 16 12 11 13 14 18 19 18 19 25 27 30 34 36 37 36 35 36 37 38 41 43 42 41 43 46 48 51 48
21 20 17 11 17 14 14 19 22 20 23 25 28 32 33 35 35 34 34 36 37 38 38 39 40 42 42 43 44 47 50 51
25 23 16 16 15 15 18 18 23 25 26 28 29 31 35 34 33 33 35 36 37 37 38 39 39 39 42 44 45 44 43 42
24 20 18 17 18 18 18 22 28 28 31 33 34 37 35 33 33 36 37 37 37 36 37 39 41 42 41 42 38 39 39 40
20 21 20 19 19 19 22 25 30 32 34 37 42 38 35 35 36 38 39 38 37 37 38 41 36 33 34 35 39 36 41 33
21 23 22 23 22 23 26 29 32 36 36 39 42 38 35 36 39 40 41 39 40 39 40 37 33 29 28 30 36 34 26 29
Wind_Direction
176 160 155 154 144 186 201 220 176 169 163 161 165 162 153 148 139 341 341 344 343 342 342 343 347 350 352 352 346 353 346 333
130 174 132 145 194 210 212 189 177 179 176 175 178 183 187 202 268 308 318 323 322 324 325 327 336 338 337 348 339 346 341 323
114 108 115 177 206 206 175 185 189 188 184 187 194 217 256 292 298 302 309 309 308 310 314 319 324 330 336 335 332 332 329 320
140 165 180 193 208 176 186 197 195 189 191 198 226 267 293 306 312 304 295 295 297 303 306 308 321 325 322 321 320 316 319 318
166 185 203 200 187 187 195 190 185 182 193 213 255 275 282 289 293 299 306 304 295 306 310 319 312 317 317 318 314 313 317 316
187 196 200 160 191 194 202 195 191 196 241 270 271 274 279 285 290 288 293 292 289 288 297 291 313 316 316 317 314 315 315 313
171 165 166 192 205 212 208 207 227 255 281 273 270 266 276 290 301 276 290 283 284 280 293 306 307 307 312 310 308 308 310 311
160 169 186 206 221 225 212 219 12 296 276 269 271 285 293 311 308 295 292 299 275 290 302 302 305 310 309 308 308 309 308 311
176 189 200 210 228 248 242 255 276 256 270 277 272 293 297 312 310 310 308 301 298 297 305 304 308 304 303 304 304 303 307 308
190 199 220 244 252 251 295 285 276 273 281 284 292 307 308 304 303 304 312 316 315 311 309 311 308 308 310 309 305 306 309 307
224 240 257 276 294 317 278 280 273 277 282 289 289 297 298 299 297 299 309 311 309 307 308 305 305 304 304 304 303 306 307 305
245 262 273 288 300 301 293 288 290 285 282 282 291 295 303 307 308 310 309 307 306 306 306 306 308 309 308 307 303 304 308 310
252 262 273 284 291 288 282 278 275 281 278 289 314 324 323 315 312 309 308 308 309 309 310 310 309 307 307 306 304 302 302 296
248 253 259 260 264 275 274 290 289 287 287 300 313 315 316 318 316 312 311 311 311 310 310 310 308 309 309 306 305 301 298 296
252 257 238 245 265 259 264 269 281 291 306 320 326 320 314 313 312 311 313 311 311 311 311 309 309 309 307 304 300 297 295 294
252 238 237 242 246 263 272 286 297 302 302 307 313 313 313 314 312 313 312 312 314 314 310 308 308 306 303 298 294 292 293 294
216 234 238 238 259 275 282 293 293 294 293 289 307 317 315 311 312 313 315 316 314 312 310 310 309 304 300 296 294 295 292 290
229 242 240 251 271 281 291 292 289 293 296 293 294 316 312 314 316 317 318 316 315 315 316 314 310 304 298 294 292 289 296 299
242 246 254 264 274 285 287 288 291 295 300 294 293 313 312 317 319 320 317 318 319 318 317 313 309 300 295 292 289 294 297 296
250 259 262 269 279 283 282 288 290 294 299 299 308 311 315 321 320 318 317 320 319 321 318 315 308 297 292 294 289 304 288 300
Height
3142 3142 3153 3158 3162 3162 3165 3168 3170 3173 3174 3175 3177 3177 3179 3180 3179 3178 3178 3177 3178 3177 3176 3176 3173 3172 3172 3172 3169 3169 3167 3163
3139 3146 3139 3160 3162 3163 3165 3167 3170 3172 3174 3176 3176 3178 3179 3180 3179 3179 3177 3177 3177 3175 3174 3173 3171 3170 3168 3168 3167 3167 3165 3161
3144 3150 3156 3159 3161 3162 3165 3167 3169 3172 3174 3176 3177 3179 3179 3180 3180 3178 3178 3175 3175 3174 3172 3171 3169 3168 3166 3165 3163 3163 3162 3159
3151 3156 3159 3161 3162 3163 3165 3167 3170 3173 3175 3176 3178 3180 3178 3179 3178 3177 3176 3173 3172 3171 3170 3167 3166 3165 3164 3162 3160 3160 3159 3155
3155 3158 3159 3161 3162 3164 3166 3168 3171 3173 3175 3176 3178 3177 3177 3176 3175 3174 3174 3172 3169 3167 3166 3163 3161 3161 3158 3156 3155 3156 3153 3152
3155 3156 3158 3161 3163 3164 3167 3169 3171 3173 3175 3176 3176 3175 3173 3172 3172 3170 3170 3167 3165 3164 3162 3160 3159 3156 3153 3151 3149 3148 3147 3144
3156 3159 3161 3163 3164 3165 3168 3171 3172 3173 3174 3173 3171 3169 3170 3170 3169 3168 3166 3163 3161 3160 3159 3156 3155 3153 3149 3146 3144 3142 3140 3136
3158 3161 3162 3163 3164 3167 3169 3169 3172 3172 3170 3170 3169 3167 3167 3165 3164 3163 3160 3158 3158 3156 3154 3152 3149 3146 3142 3139 3136 3135 3132 3130
3160 3162 3163 3165 3165 3167 3167 3168 3168 3166 3166 3165 3165 3164 3162 3160 3159 3157 3157 3156 3154 3151 3149 3145 3142 3141 3138 3135 3131 3128 3126 3124
3160 3161 3162 3164 3164 3165 3164 3165 3164 3163 3162 3161 3160 3159 3158 3156 3155 3154 3152 3149 3145 3143 3141 3139 3136 3133 3128 3125 3122 3121 3119 3116
3158 3158 3160 3161 3161 3162 3162 3161 3160 3159 3159 3157 3157 3155 3155 3153 3151 3150 3148 3145 3141 3138 3136 3133 3130 3127 3124 3120 3114 3112 3112 3109
3157 3157 3158 3158 3159 3159 3157 3157 3156 3156 3156 3155 3153 3153 3152 3150 3146 3146 3143 3140 3136 3133 3129 3126 3123 3118 3114 3111 3107 3104 3103 3101
3156 3156 3157 3157 3156 3155 3154 3154 3154 3154 3153 3152 3151 3149 3148 3146 3144 3140 3137 3134 3130 3126 3122 3118 3115 3111 3106 3103 3098 3095 3094 3092
3153 3154 3155 3154 3153 3152 3152 3151 3150 3150 3150 3149 3148 3146 3143 3141 3138 3134 3131 3126 3123 3119 3114 3109 3105 3102 3097 3093 3087 3085 3082 3078
3149 3150 3151 3151 3152 3152 3150 3148 3147 3145 3144 3144 3142 3141 3139 3135 3130 3126 3123 3120 3116 3111 3107 3101 3096 3093 3090 3085 3078 3074 3067 3066
3146 3146 3147 3148 3147 3148 3147 3145 3143 3143 3139 3138 3136 3133 3130 3127 3123 3120 3116 3111 3107 3102 3098 3093 3089 3084 3081 3077 3071 3065 3058 3051
3142 3141 3144 3144 3144 3144 3142 3141 3138 3136 3135 3134 3131 3127 3123 3120 3116 3113 3109 3104 3099 3094 3089 3085 3081 3077 3070 3064 3059 3055 3051 3047
3137 3138 3139 3139 3140 3139 3138 3136 3134 3132 3130 3128 3125 3121 3117 3113 3109 3104 3100 3096 3091 3085 3080 3075 3070 3064 3059 3053 3050 3045 3042 3037
3134 3134 3134 3134 3135 3134 3133 3131 3128 3126 3124 3121 3117 3114 3109 3104 3100 3096 3091 3086 3081 3076 3071 3065 3060 3054 3049 3045 3042 3039 3035 3031
3130 3129 3129 3129 3129 3128 3126 3125 3123 3120 3118 3115 3110 3106 3100 3095 3092 3087 3082 3078 3072 3068 3062 3055 3050 3045 3040 3037 3034 3032 3028 3026